Weather Roundup
Issued by NWS

Home | Current Version | Previous Version | Graphics & Text | Print | Product List | Glossary Off
Versions: 1 2 3 4 5 6 7 8 9 10 11 12 13 14 15 16 17 18 19 20 21 22 23 24 25 26 27 28 29 30 31 32 33 34 35 36 37 38 39 40 41 42 43 44 45 46 47 48 49 50

290
NZUS93 KARX 250959
HRRWXR

CURRENT HOURLY OBSERVATIONS ACROSS
MUCH OF THE UPPER MISSISSIPPI VALLEY
NATIONAL WEATHER SERVICE LA CROSSE WI
500 AM CDT THU MAY 25 2017


...SOUTHEAST MINNESOTA...


CITY           SKY/WX    TMP DP  RH WIND       PRES   REMARKS
ROCHESTER      CLOUDY    47  47 100 E6        29.71R
ROCHESTER/MAYO NOT AVBL
WINONA         MOCLDY    48  46  93 CALM      29.70F
AUSTIN         CLEAR     45  43  93 CALM      29.70S FOG
ALBERT LEA       N/A     45  45 100 CALM      29.69S
DODGE CENTER   CLEAR     46  46 100 CALM      29.71R FOG
PRESTON        MOCLDY    47  46  94 CALM      29.72R
OWATONNA       CLEAR     45  43  93 E3        29.70S
FARIBAULT      PTCLDY    45  45 100 CALM      29.70S FOG
$$

...ELSEWHERE IN MINNESOTA...


CITY           SKY/WX    TMP DP  RH WIND       PRES   REMARKS
MINNEAPOLIS    CLEAR     51  47  86 E8        29.69S
INTNL FALLS    CLEAR     39  36  89 E7        29.72S WCI  34
DULUTH         CLEAR     42  40  92 E7        29.74R
RED WING       CLEAR     46  45  93 CALM      29.70R
REDWOOD FALLS  CLEAR     48  43  82 SE7       29.65F
MANKATO          N/A     47  45  93 SE6       29.69R
WORTHINGTON    CLOUDY    48  45  89 SE9       29.65F
FAIRMONT       CLEAR     46  45  96 S6        29.69R
$$

...SOUTHWEST WISCONSIN...


CITY           SKY/WX    TMP DP  RH WIND       PRES   REMARKS
LA CROSSE      FOG       47  46  97 CALM      29.70R VSB 1
PRAIRIE DU CHI CLOUDY    51  47  86 CALM      29.68F
BOSCOBEL       CLOUDY    55  49  80 N5        29.68S
LONE ROCK      CLOUDY    55  49  80 N6        29.67S
PLATTEVILLE    CLOUDY    52  52  98 N8        29.67S
FORT MC COY    CLOUDY    45  45 100 CALM      29.70S
MAUSTON-NEW LI CLOUDY    53  50  91 CALM      29.68S
VIROQUA        CLOUDY    51  49  92 SW6       29.68F
WIS DELLS      CLOUDY    52  49  88 NE6       29.67S
$$

...ELSEWHERE IN WISCONSIN...


CITY           SKY/WX    TMP DP  RH WIND       PRES   REMARKS
MILWAUKEE      CLOUDY    53  50  89 N12       29.59R
MADISON        CLOUDY    52  50  93 N10       29.64S
GREEN BAY      CLEAR     48  48 100 N6        29.66S
EAU CLAIRE     NOT AVBL
BLACK RVR FLS  FOG       39  39 100 CALM      29.70S VSB<1/4
MEDFORD        CLEAR     45  44  97 CALM      29.71R
WAUSAU         CLOUDY    50  47  89 N5        29.69S
WIS RAPIDS     CLOUDY    51  48  89 NE6       29.70S
MARSHFIELD     CLEAR     48  45  89 NE7       29.69S
RICE LAKE      CLOUDY    51  48  89 CALM      29.74R
$$

...NORTHEAST IOWA...


CITY           SKY/WX    TMP DP  RH WIND       PRES   REMARKS
WATERLOO       CLEAR     40  39  97 CALM      29.68S
DUBUQUE        CLOUDY    51  49  92 N8        29.67S
DECORAH        CLOUDY    48  48 100 CALM      29.68S
MASON CITY     FOG       41  40  96 E5        29.71R VSB 1/4
CHARLES CITY   CLEAR     46  46 100 NE5       29.70R
OELWEIN        CLEAR     45  43  93 NW5       29.69R FOG
$$

...ELSEWHERE IN IOWA...


CITY           SKY/WX    TMP DP  RH WIND       PRES   REMARKS
DES MOINES     PTCLDY    47  44  90 CALM      29.69R
IOWA CITY      CLEAR     48  46  93 W3        29.68S
FORT DODGE     CLEAR     45  43  93 E3        29.69R
MARSHALLTOWN   FOG       41  41 100 W6        29.69R VSB 1/4
CEDAR RAPIDS   CLEAR     46  46 100 N5        29.66S
$$

...NORTHERN ILLINOIS...


CITY           SKY/WX    TMP DP  RH WIND       PRES   REMARKS
CHICAGO-OHARE  MOCLDY    54  50  86 N13       29.55S
CHICAGO-MIDWAY CLOUDY    55  51  86 N12       29.54R
MOLINE         PTCLDY    53  49  86 N6        29.64S
ROCKFORD       CLOUDY    55  51  86 N9        29.63R
PEORIA         CLOUDY    54  51  90 N6        29.62R
$$

NOTE: "FAIR" INDICATES FEW OR NO CLOUDS BELOW 12,000 FEET WITH NO
SIGNIFICANT WEATHER AND/OR OBSTRUCTIONS TO VISIBILITY. WIND
SPEEDS ARE IN MILES-PER-HOUR.




USA.gov is the U.S. government's official web portal to all federal, state and local government web resources and services.